Zurück zum Katalog

XINGRUI-11

AktivWissenschaftSSO
NORAD 64089·PAYLOAD·🇨🇳 China
Dieser Satellitenname wurde noch nicht durch offizielle Quellen bestätigt.

Gestartet May 21, 2025 von Jiuquan Satellite Launch Center

Loading…

Nächste Überflüge (nächste 24 Stunden)

TLE

AktuellSource: Space-Track

Epoche: Sep 14, 2026, 15:33 UTC

1 64089U 25108C   26257.64842876  .00003201  00000-0  18521-3 0  9996
2 64089  97.4615 329.9326 0006593  95.0974 265.1010 15.12936836 72796

Verfolge XINGRUI-11 in Echtzeit mit AllMySat

Download on the App Store